EW4960 Weather Reports


Display with metric or nautical units.
time (UTC)temp
F
wind
direction
speed
MPH
gust
MPH
rain 1hr
in
rain 24hr
in
rain mn
in
humidity
%
barometer
mb
20221130024559 37 312 0.0 0.0 0.00 0.00 0.00 80 1025.9
20221130023109 37 312 0.0 0.0 0.00 0.00 0.00 79 1025.7
20221130021603 37 312 0.0 0.0 0.00 0.00 0.00 79 1025.7
20221130020058 37 312 0.0 0.0 0.00 0.00 0.00 79 1025.8
20221130014557 37 312 0.0 0.0 0.00 0.00 0.00 78 1025.8
20221130013057 37 312 0.0 0.0 0.00 0.00 0.00 78 1025.7
20221130011558 37 312 0.0 0.0 0.00 0.00 0.00 77 1025.5
20221130010056 38 312 0.0 0.0 0.00 0.00 0.00 76 1025.3
20221130004615 38 312 0.0 0.0 0.00 0.00 0.00 77 1025.4
20221130003056 38 312 0.0 0.0 0.00 0.00 0.00 76 1025.7
20221130001555 39 312 0.0 0.0 0.00 0.00 0.00 76 1025.4
20221130000054 39 312 0.0 0.0 0.00 0.00 0.00 75 1025.6
20221129234554 39 312 0.0 0.0 0.00 0.00 0.00 76 1025.8
20221129233058 39 312 0.0 0.0 0.00 0.00 0.00 74 1025.9
20221129231552 39 312 0.0 0.0 0.00 0.00 0.00 74 1025.7
20221129230053 39 312 0.0 0.0 0.00 0.00 0.00 74 1025.9
20221129224554 40 312 0.0 0.0 0.00 0.00 0.00 73 1026.1
20221129223051 40 312 0.0 0.0 0.00 0.00 0.00 73 1026.0
20221129221550 40 312 0.0 0.0 0.00 0.00 0.00 72 1026.0
20221129220054 40 314 0.0 0.0 0.00 0.00 0.00 72 1025.6
20221129214553 40 314 0.0 0.0 0.00 0.00 0.00 72 1025.5
20221129213048 41 314 0.0 0.0 0.00 0.00 0.00 72 1025.3
20221129211546 41 314 0.0 0.0 0.00 0.00 0.00 71 1025.3
20221129210044 41 314 0.0 1.0 0.00 0.00 0.00 70 1025.3
20221129204542 41 314 0.0 0.0 0.00 0.00 0.00 70 1025.2
20221129203040 41 314 0.0 3.0 0.00 0.00 0.00 69 1024.9
20221129201552 42 313 0.0 3.0 0.00 0.00 0.00 69 1024.8
20221129200044 42 313 0.0 3.0 0.00 0.00 0.00 69 1024.7
20221129194532 42 313 1.0 3.0 0.00 0.00 0.00 68 1024.8
20221129193036 42 314 0.0 1.0 0.00 0.00 0.00 68 1024.6
20221129191523 42 314 0.0 3.0 0.00 0.00 0.00 69 1024.3
20221129190022 41 314 1.0 3.0 0.00 0.00 0.00 69 1024.2
20221129184521 41 313 1.0 4.0 0.00 0.00 0.00 68 1024.1
20221129183020 41 315 1.0 5.0 0.00 0.00 0.00 69 1024.1
20221129181516 40 263 0.0 0.0 0.00 0.00 0.00 69 1024.4
20221129180016 40 263 1.0 3.0 0.00 0.00 0.00 69 1024.8
20221129174509 39 263 1.0 4.0 0.00 0.00 0.00 70 1025.1
20221129173008 39 260 1.0 4.0 0.00 0.00 0.00 69 1025.4
20221129171509 39 259 0.0 0.0 0.00 0.00 0.00 69 1025.4
20221129170004 39 259 0.0 0.0 0.00 0.00 0.00 69 1025.4
20221129164501 38 256 0.0 0.0 0.00 0.00 0.00 70 1025.4
20221129163102 38 254 0.0 5.0 0.00 0.00 0.00 70 1025.3
20221129161559 38 252 0.0 5.0 0.00 0.00 0.00 71 1025.6
20221129160053 37 238 0.0 4.0 0.00 0.00 0.00 72 1025.7
20221129154550 37 236 0.0 4.0 0.00 0.00 0.00 72 1025.6
20221129153048 36 307 1.0 4.0 0.00 0.00 0.00 71 1025.7
20221129151546 36 306 0.0 4.0 0.00 0.00 0.00 73 1025.3
20221129150048 35 300 0.0 0.0 0.00 0.00 0.00 72 1025.3
20221129144551 35 299 0.0 0.0 0.00 0.00 0.00 74 1025.3
20221129143040 34 312 1.0 4.0 0.00 0.00 0.00 75 1025.2
20221129141539 34 312 0.0 3.0 0.00 0.00 0.00 75 1025.0
20221129140040 33 317 1.0 6.0 0.00 0.00 0.00 76 1024.7
20221129134536 33 273 0.0 4.0 0.00 0.00 0.00 78 1024.5
20221129133049 32 240 0.0 0.0 0.00 0.00 0.00 78 1024.1
20221129131533 32 240 0.0 0.0 0.00 0.00 0.00 79 1023.8
20221129130039 31 238 0.0 0.0 0.00 0.00 0.00 80 1023.3
20221129124532 30 238 0.0 0.0 0.00 0.00 0.00 82 1023.6
20221129123032 29 238 0.0 0.0 0.00 0.00 0.00 82 1023.4
20221129121524 29 238 0.0 0.0 0.00 0.00 0.00 81 1022.9
20221129120035 29 238 0.0 0.0 0.00 0.00 0.00 81 1022.8
20221129114516 29 238 0.0 0.0 0.00 0.00 0.00 81 1022.6
20221129113022 29 238 0.0 0.0 0.00 0.00 0.00 81 1022.5
20221129111514 30 238 0.0 0.0 0.00 0.00 0.00 80 1022.4
20221129110013 30 238 0.0 0.0 0.00 0.00 0.00 79 1022.3
20221129104508 30 238 0.0 0.0 0.00 0.00 0.00 78 1021.7
20221129103005 30 238 0.0 0.0 0.00 0.00 0.00 78 1021.5
20221129101616 31 238 0.0 0.0 0.00 0.00 0.00 77 1021.1
20221129100101 31 238 0.0 0.0 0.00 0.00 0.00 77 1021.0
20221129094559 31 238 0.0 0.0 0.00 0.00 0.00 77 1021.1
20221129093054 31 238 0.0 0.0 0.00 0.00 0.00 76 1020.7
20221129091552 32 238 0.0 0.0 0.00 0.00 0.00 76 1020.3
20221129090050 32 238 0.0 0.0 0.00 0.00 0.00 75 1020.4
20221129084551 32 238 0.0 0.0 0.00 0.00 0.00 76 1020.2
20221129083045 33 238 0.0 0.0 0.00 0.00 0.00 76 1019.6
20221129081542 33 236 0.0 0.0 0.00 0.00 0.00 75 1019.3
20221129080045 33 236 0.0 0.0 0.00 0.00 0.00 75 1019.2
20221129074536 33 236 0.0 3.0 0.00 0.00 0.00 76 1019.0
20221129073033 33 234 0.0 3.0 0.00 0.00 0.00 75 1018.6
20221129071530 34 233 1.0 5.0 0.00 0.00 0.00 75 1018.3
20221129070028 34 233 0.0 0.0 0.00 0.00 0.00 75 1018.0
20221129064524 34 233 0.0 1.0 0.00 0.00 0.00 73 1017.8
20221129063022 34 233 0.0 4.0 0.00 0.00 0.00 73 1017.6
20221129061517 35 233 0.0 4.0 0.00 0.00 0.00 74 1017.3
20221129060016 35 233 0.0 0.0 0.00 0.00 0.00 73 1017.1
20221129054517 35 236 0.0 2.0 0.00 0.00 0.00 73 1016.8
20221129053011 35 236 0.0 2.0 0.00 0.00 0.00 72 1016.8
20221129051509 35 236 0.0 2.0 0.00 0.00 0.00 71 1016.7
20221129050004 36 236 1.0 5.0 0.00 0.00 0.00 72 1016.4
20221129044507 36 324 0.0 4.0 0.00 0.00 0.00 72 1016.3
20221129043116 36 271 1.0 5.0 0.00 0.00 0.00 72 1016.1
20221129041603 36 309 2.0 6.0 0.00 0.00 0.00 71 1015.8
20221129040053 37 280 0.0 5.0 0.00 0.00 0.00 71 1015.6
20221129034553 37 263 0.0 0.0 0.00 0.02 0.00 71 1015.4
20221129033050 37 225 0.0 0.0 0.00 0.02 0.00 72 1015.3
20221129031553 37 246 0.0 7.0 0.00 0.02 0.00 74 1015.0
20221129030044 37 242 0.0 0.0 0.00 0.02 0.00 74 1014.8